Location: Newark
(27.9675°N, 86.8869°E)
Time: 23:34:06
(UTC+00:00)

Altair - Pass Details

Date: 01 November 2019
Orbit: 1502 x 1682 km, 47.2° (Epoch: 12 November)

Event Time Altitude Azimuth Distance (km) Brightness Sun altitude
Rises 22:56:08 0° 194° (SSW) 4,624 9.9 -19.8°
Reaches altitude 10° 22:59:39 10° 183° (S) 3,640 9.5 -19.0°
Maximum altitude 23:07:12 30° 127° (SE) 2,450 9.2 -17.4°
Drops below altitude 10° 23:14:49 10° 71° (ENE) 3,690 10.5 -15.7°
Sets 23:18:22 0° 61° (ENE) 4,696 10.9 -14.9°
